sat.trackr.live / text

‹ back to catalog

STARLINK-36845

NORAD 68056 · 2026-041S

PAYLOAD ACTIVE UNKNOWN

§ Identity

Operator
Country
US
Launch date
2026-03-02
Launch site
AFETR
Launch vehicle
Mass (kg)
RCS (m²)

Purposes: comms

External: N2YO · Heavens-Above · Gunter

§ Orbital elements

Epoch: 2026-09-20T03:44:24.700416Z

Period
93.85 min
Inclination
53.1605°
Eccentricity
0.0001226
Mean motion
15.34394767 rev/d
Perigee alt
461.9 km
Apogee alt
463.6 km
Semi-major
6,840.9 km
B*
5.2709e-4
RAAN
221.5072°
Arg perigee
53.9839°
Mean anomaly
306.1277°
Rev number
3,123

§ Raw data

STARLINK-368451 68056U 26041S   26263.15584144  .00017471  00000+0  52709-3 0  99942 68056  53.1605 221.5072 0001226  53.9839 306.1277 15.34394767 31238

JSON: /api/v1/satellites/68056 · /tle

For live sub-satellite position, see the globe view (requires WebGL).

§ Visibility from observer

Set your observer location to see the next 7 days of passes ≥ 10°. The values pass through the URL so the page stays shareable.

No JS? Fill the form by hand. The geolocation button needs JavaScript.